Deer Park, WA
on Friday, February 22, 2013

Friday
Previous Day Next Day
Daily Summary
 ActualAverageRecord
Temperature
Mean Temperature °F 31°F  
Max Temperature 38°F 41°F 50°F (2006)
Min Temperature 31°F 22°F 10°F (2008)
Degree Days
Heating Degree Days 30 34  
Month to date heating degree days 764 773  
Since 1 July heating degree days 4872 5169  
Cooling Degree Days 0 0  
Month to date cooling degree days 0 0  
Year to date cooling degree days 0 0  
Moisture
Dew Point 31°F   
Average Humidity 88    
Maximum Humidity 100    
Minimum Humidity 75    
Precipitation
Precipitation 0.29 in 0.05 in 0.29 in (2013)
Month to date precipitation 0.53 1.29  
Year to date precipitation 2.03 3.92  
Wind
Wind Speed 10 mph   
Max Wind Speed 23 mph   
Max Gust Speed 28 mph   
Visibility 4 miles   
Events Fog , Snow   

Key: T is trace of precipitation, MM is missing value
Source: NWS Daily Summary
Time(PST)TemperatureDew PointHumidity Pressure Visibility Wind DirectionWind SpeedGust SpeedPrecipitationEvents Conditions
12:43 AM 32.0°F 30.2°F 93% 29.94 in 10.0 miles SSE 5.8 mph - N/A   Overcast
12:53 AM 32.0°F 30.0°F 92% 30.01 in 10.0 miles SSE 6.9 mph - N/A   Overcast
1:53 AM 32.0°F 30.0°F 92% 30.00 in 10.0 miles SSE 9.2 mph - N/A   Overcast
2:53 AM 30.9°F 28.9°F 92% 29.99 in 10.0 miles Variable 5.8 mph - N/A   Overcast
3:53 AM 30.9°F 28.9°F 92% 30.01 in 10.0 miles South 6.9 mph - N/A   Overcast
4:53 AM 30.9°F 28.9°F 92% 30.00 in 10.0 miles SSE 9.2 mph - N/A   Overcast
5:53 AM 30.9°F 30.0°F 96% 30.01 in 10.0 miles South 8.1 mph - N/A   Overcast
6:20 AM 30.2°F 30.2°F 100% 29.93 in 1.8 miles South 8.1 mph - 0.00 in Snow Light Snow
6:43 AM 30.2°F 30.2°F 100% 29.93 in 2.0 miles South 6.9 mph - 0.00 in Snow Light Snow
6:48 AM 30.2°F 30.2°F 100% 29.93 in 1.8 miles South 8.1 mph - 0.00 in Snow Light Snow
6:53 AM 30.9°F 30.0°F 96% 29.99 in 1.2 miles South 8.1 mph - 0.00 in Snow Light Snow
7:06 AM 30.2°F 30.2°F 100% 29.93 in 1.5 miles SSE 6.9 mph - 0.00 in Snow Light Snow
7:15 AM 30.2°F 30.2°F 100% 29.93 in 1.8 miles SSE 6.9 mph - 0.01 in Snow Light Snow
7:40 AM 30.2°F 30.2°F 100% 29.93 in 0.8 miles SSE 8.1 mph - 0.01 in Snow Light Snow
7:53 AM 30.9°F 30.9°F 100% 29.98 in 0.5 miles SSE 9.2 mph - 0.02 in Fog , Snow Snow
8:26 AM 32.0°F 30.2°F 93% 29.91 in 1.0 miles SSE 10.4 mph - 0.00 in Snow Light Snow
8:42 AM 32.0°F 30.2°F 93% 29.91 in 0.8 miles SSE 9.2 mph - 0.01 in Snow Light Snow
8:53 AM 32.0°F 30.9°F 96% 29.96 in 1.5 miles South 10.4 mph - 0.01 in Snow Light Snow
9:17 AM 32.0°F 32.0°F 100% 29.90 in 2.0 miles SSE 10.4 mph - 0.00 in Snow Light Snow
9:25 AM 32.0°F 32.0°F 100% 29.89 in 1.5 miles SSE 10.4 mph - 0.00 in Snow Light Snow
9:34 AM 32.0°F 32.0°F 100% 29.89 in 3.0 miles SSE 11.5 mph - 0.00 in Snow Light Snow
9:53 AM 33.1°F 32.0°F 96% 29.93 in 10.0 miles SSE 11.5 mph - 0.00 in   Overcast
10:27 AM 33.8°F 32.0°F 93% 29.87 in 1.8 miles SSE 9.2 mph - 0.00 in Snow Light Snow
10:33 AM 33.8°F 32.0°F 93% 29.87 in 0.8 miles SSE 10.4 mph - 0.00 in Snow Light Snow
10:44 AM 33.8°F 32.0°F 93% 29.87 in 1.2 miles South 9.2 mph - 0.00 in Snow Light Snow
10:53 AM 33.1°F 32.0°F 96% 29.92 in 2.0 miles South 9.2 mph - 0.01 in Snow Light Snow
11:06 AM 33.8°F 32.0°F 93% 29.85 in 1.8 miles SSE 8.1 mph - 0.00 in Snow Light Snow
11:21 AM 33.8°F 32.0°F 93% 29.84 in 2.5 miles SSE 8.1 mph - 0.01 in Snow Light Snow
11:29 AM 33.8°F 32.0°F 93% 29.84 in 1.8 miles SSE 9.2 mph - 0.01 in Snow Light Snow
11:41 AM 33.8°F 32.0°F 93% 29.83 in 3.0 miles SE 9.2 mph - 0.01 in Snow Light Snow
11:53 AM 33.1°F 32.0°F 96% 29.87 in 5.0 miles SE 10.4 mph - 0.01 in   Overcast
12:03 PM 33.8°F 32.0°F 93% 29.81 in 6.0 miles SSE 11.5 mph - 0.00 in   Overcast
12:23 PM 33.8°F 32.0°F 93% 29.80 in 1.8 miles South 9.2 mph - 0.01 in Snow Light Snow
12:39 PM 33.8°F 32.0°F 93% 29.79 in 0.5 miles SSE 9.2 mph - 0.03 in Fog , Snow Snow
12:53 PM 33.1°F 32.0°F 96% 29.83 in 0.5 miles SSE 8.1 mph - 0.05 in Fog , Snow Snow
1:00 PM 33.8°F 32.0°F 93% 29.77 in 0.5 miles SSE 8.1 mph - 0.01 in Fog , Snow Snow
1:11 PM 33.8°F 32.0°F 93% 29.76 in 0.5 miles SSE 9.2 mph - 0.02 in Fog , Snow Snow
1:53 PM 33.1°F 32.0°F 96% 29.79 in 0.2 miles SSE 12.7 mph - 0.07 in Fog , Snow Heavy Snow
2:49 PM 33.8°F 32.0°F 93% 29.72 in 0.5 miles SSE 10.4 mph - 0.06 in Fog , Snow Snow
2:53 PM 33.1°F 32.0°F 96% 29.78 in 0.5 miles SSE 12.7 mph - 0.06 in Fog , Snow Snow
3:12 PM 33.8°F 32.0°F 93% 29.72 in 1.5 miles SSE 11.5 mph - 0.01 in Snow Light Snow
3:17 PM 33.8°F 32.0°F 93% 29.71 in 3.0 miles SSE 11.5 mph - 0.01 in   Overcast
3:45 PM 33.8°F 32.0°F 93% 29.70 in 1.8 miles SSE 9.2 mph - 0.02 in Snow Light Snow
3:53 PM 33.1°F 32.0°F 96% 29.75 in 1.0 miles SSE 9.2 mph - 0.03 in Snow Light Snow
4:20 PM 33.8°F 32.0°F 93% 29.68 in 2.0 miles SSE 11.5 mph - 0.01 in Snow Light Snow
4:30 PM 33.8°F 32.0°F 93% 29.68 in 1.8 miles SSE 9.2 mph - 0.01 in Snow Light Snow
4:38 PM 33.8°F 32.0°F 93% 29.67 in 1.0 miles SSE 9.2 mph - 0.02 in Snow Light Snow
4:53 PM 33.1°F 32.0°F 96% 29.73 in 1.8 miles SSE 8.1 mph - 0.03 in Snow Light Snow
4:56 PM 33.8°F 32.0°F 93% 29.68 in 3.0 miles South 6.9 mph - 0.00 in Snow Light Snow
5:15 PM 33.8°F 32.0°F 93% 29.66 in 10.0 miles SSE 10.4 mph - 0.00 in   Overcast
5:53 PM 34.0°F 33.1°F 96% 29.71 in 10.0 miles SSE 9.2 mph - 0.00 in   Overcast
6:42 PM 35.6°F 33.8°F 93% 29.64 in 10.0 miles South 8.1 mph - 0.00 in   Overcast
6:53 PM 37.9°F 34.0°F 86% 29.68 in 10.0 miles SSW 13.8 mph - 0.00 in   Overcast
7:53 PM 37.9°F 34.0°F 86% 29.65 in 10.0 miles SSW 11.5 mph 18.4 mph N/A   Overcast
8:50 PM 37.4°F 33.8°F 87% 29.58 in 10.0 miles SSW 15.0 mph 26.5 mph N/A   Partly Cloudy
8:53 PM 37.0°F 33.1°F 86% 29.62 in 10.0 miles SSW 15.0 mph - N/A   Partly Cloudy
9:53 PM 37.0°F 32.0°F 82% 29.65 in 10.0 miles SW 19.6 mph - N/A   Mostly Cloudy
10:53 PM 36.0°F 28.9°F 76% 29.67 in 10.0 miles SSW 13.8 mph - N/A   Overcast
11:53 PM 35.1°F 27.0°F 72% 29.68 in 10.0 miles SW 10.4 mph - N/A   Clear
Moon Phase
Feb. 22 Feb. 25 Mar. 04 Mar. 11 Mar. 19
Sunrise:06:43 AM (PST) Moon Rise:02:31 PM (PST)2/22
Sunset:05:23 PM (PST) Moon Set:04:40 AM (PST)2/22

Copyright © 2014 The Weather Underground, Inc.